Time,TemperatureF,DewpointF,PressureIn,WindDirection,WindDirectionDegrees,WindSpeedMPH,WindSpeedGustMPH,Humidity,HourlyPrecipIn,Conditions,Clouds,dailyrainin,SoftwareType,DateUTC
2013-06-14 00:01:00,65.0,55.0,29.91,West,264,2.0,2.0,69,0.00,,,1.29,,2013-06-14 04:01:00,
2013-06-14 00:12:00,65.0,55.0,29.91,West,276,1.0,2.0,70,0.00,,,1.29,,2013-06-14 04:12:00,
2013-06-14 00:22:00,64.0,55.0,29.91,West,277,2.0,3.0,72,0.00,,,1.29,,2013-06-14 04:22:00,
2013-06-14 00:33:00,64.0,55.0,29.91,SW,231,2.0,3.0,73,0.00,,,1.29,,2013-06-14 04:33:00,
2013-06-14 00:43:00,64.0,56.0,29.91,West,275,2.0,6.0,74,0.00,,,1.29,,2013-06-14 04:43:00,
2013-06-14 00:53:00,63.0,54.0,29.91,West,281,2.0,3.0,73,0.00,,,1.29,,2013-06-14 04:53:00,
2013-06-14 01:02:00,63.0,54.0,29.91,WSW,251,2.0,3.0,73,0.00,,,1.29,,2013-06-14 05:02:00,
2013-06-14 01:11:00,63.0,55.0,29.92,West,267,1.0,3.0,74,0.00,,,1.29,,2013-06-14 05:11:00,
2013-06-14 01:22:00,62.0,54.0,29.92,West,268,2.0,3.0,75,0.00,,,1.29,,2013-06-14 05:22:00,
2013-06-14 01:34:00,62.0,54.0,29.91,West,264,1.0,2.0,76,0.00,,,1.29,,2013-06-14 05:34:00,
2013-06-14 01:43:00,62.0,55.0,29.92,WSW,258,1.0,3.0,77,0.00,,,1.29,,2013-06-14 05:43:00,
2013-06-14 01:52:00,62.0,55.0,29.92,West,276,2.0,3.0,78,0.00,,,1.14,,2013-06-14 05:52:00,
2013-06-14 02:02:00,62.0,55.0,29.92,West,277,2.0,3.0,78,0.00,,,1.04,,2013-06-14 06:02:00,
2013-06-14 02:12:00,62.0,55.0,29.91,West,279,1.0,2.0,78,0.00,,,0.78,,2013-06-14 06:12:00,
2013-06-14 02:22:00,62.0,55.0,29.91,NW,305,1.0,2.0,78,0.00,,,0.52,,2013-06-14 06:22:00,
2013-06-14 02:33:00,62.0,55.0,29.91,West,278,2.0,3.0,78,0.00,,,0.47,,2013-06-14 06:33:00,
2013-06-14 02:43:00,62.0,55.0,29.91,NW,319,1.0,1.0,78,0.00,,,0.42,,2013-06-14 06:43:00,
2013-06-14 02:52:00,62.0,55.0,29.91,West,273,2.0,2.0,78,0.00,,,0.33,,2013-06-14 06:52:00,
2013-06-14 03:02:00,62.0,55.0,29.91,WNW,288,2.0,2.0,78,0.00,,,0.33,,2013-06-14 07:02:00,
2013-06-14 03:12:00,62.0,55.0,29.91,SW,224,0.0,0.0,79,0.00,,,0.29,,2013-06-14 07:12:00,
2013-06-14 03:22:00,62.0,56.0,29.91,SW,232,0.0,1.0,80,0.00,,,0.29,,2013-06-14 07:22:00,
2013-06-14 03:33:00,61.0,55.0,29.91,WNW,289,2.0,3.0,81,0.00,,,0.20,,2013-06-14 07:33:00,
2013-06-14 03:43:00,61.0,55.0,29.91,WNW,290,1.0,1.0,82,0.00,,,0.19,,2013-06-14 07:43:00,
2013-06-14 03:53:00,61.0,55.0,29.91,NW,307,1.0,2.0,82,0.00,,,0.19,,2013-06-14 07:53:00,
2013-06-14 04:02:00,60.0,55.0,29.91,WNW,292,1.0,2.0,85,0.00,,,0.19,,2013-06-14 08:02:00,
2013-06-14 04:12:00,60.0,56.0,29.91,WNW,285,1.0,2.0,86,0.00,,,0.19,,2013-06-14 08:12:00,
2013-06-14 04:23:00,60.0,56.0,29.91,West,278,1.0,1.0,86,0.00,,,0.19,,2013-06-14 08:23:00,
2013-06-14 04:33:00,60.0,56.0,29.91,West,278,0.0,1.0,88,0.00,,,0.19,,2013-06-14 08:33:00,
2013-06-14 04:43:00,59.0,55.0,29.91,West,271,0.0,0.0,88,0.00,,,0.19,,2013-06-14 08:43:00,
2013-06-14 04:53:00,59.0,55.0,29.91,North,6,0.0,0.0,88,0.00,,,0.19,,2013-06-14 08:53:00,
2013-06-14 05:02:00,59.0,56.0,29.91,WSW,257,0.0,0.0,90,0.00,,,0.19,,2013-06-14 09:02:00,
2013-06-14 05:12:00,59.0,56.0,29.91,WSW,257,0.0,0.0,91,0.00,,,0.19,,2013-06-14 09:12:00,
2013-06-14 05:22:00,59.0,56.0,29.91,WSW,257,0.0,0.0,91,0.00,,,0.19,,2013-06-14 09:22:00,
2013-06-14 05:33:00,59.0,57.0,29.92,WNW,299,1.0,1.0,93,0.00,,,0.19,,2013-06-14 09:33:00,
2013-06-14 05:43:00,58.0,56.0,29.92,NW,326,0.0,0.0,94,0.00,,,0.19,,2013-06-14 09:43:00,
2013-06-14 05:53:00,58.0,57.0,29.93,NW,310,0.0,0.0,95,0.00,,,0.19,,2013-06-14 09:53:00,
2013-06-14 06:01:00,58.0,57.0,29.93,SW,216,0.0,0.0,95,0.00,,,0.19,,2013-06-14 10:01:00,
2013-06-14 06:11:00,58.0,57.0,29.93,West,272,0.0,0.0,95,0.00,,,0.19,,2013-06-14 10:11:00,
2013-06-14 06:22:00,58.0,57.0,29.94,WSW,240,0.0,0.0,96,0.00,,,0.19,,2013-06-14 10:22:00,
2013-06-14 06:34:00,58.0,57.0,29.95,WSW,257,0.0,0.0,97,0.00,,,0.19,,2013-06-14 10:34:00,
2013-06-14 06:43:00,58.0,57.0,29.95,WSW,257,0.0,0.0,97,0.00,,,0.19,,2013-06-14 10:43:00,
2013-06-14 06:52:00,58.0,57.0,29.95,WSW,257,0.0,0.0,97,0.00,,,0.19,,2013-06-14 10:52:00,
2013-06-14 07:02:00,58.0,57.0,29.95,WSW,257,0.0,0.0,97,0.00,,,0.19,,2013-06-14 11:02:00,
2013-06-14 07:11:00,58.0,57.0,29.96,WSW,257,0.0,0.0,97,0.00,,,0.19,,2013-06-14 11:11:00,
2013-06-14 07:23:00,58.0,57.0,29.96,WSW,257,0.0,0.0,97,0.00,,,0.19,,2013-06-14 11:23:00,
2013-06-14 07:32:00,59.0,58.0,29.97,West,260,0.0,2.0,97,0.00,,,0.19,,2013-06-14 11:32:00,
2013-06-14 07:43:00,59.0,58.0,29.97,WNW,284,1.0,2.0,97,0.00,,,0.19,,2013-06-14 11:43:00,
2013-06-14 07:52:00,59.0,58.0,29.98,WNW,284,0.0,0.0,96,0.00,,,0.19,,2013-06-14 11:52:00,
2013-06-14 08:02:00,59.0,58.0,29.98,WNW,284,0.0,2.0,96,0.00,,,0.19,,2013-06-14 12:02:00,
2013-06-14 08:12:00,60.0,59.0,29.99,NW,309,1.0,2.0,95,0.00,,,0.19,,2013-06-14 12:12:00,
2013-06-14 08:22:00,61.0,60.0,29.98,West,281,1.0,3.0,95,0.00,,,0.19,,2013-06-14 12:22:00,
2013-06-14 08:33:00,61.0,60.0,30.00,West,262,1.0,2.0,95,0.00,,,0.19,,2013-06-14 12:33:00,
2013-06-14 08:43:00,62.0,59.0,30.00,WNW,297,1.0,3.0,91,0.00,,,0.17,,2013-06-14 12:43:00,
2013-06-14 08:52:00,63.0,60.0,30.01,West,276,2.0,3.0,90,0.00,,,0.17,,2013-06-14 12:52:00,
2013-06-14 09:02:00,63.0,60.0,30.01,NNW,341,1.0,2.0,90,0.00,,,0.17,,2013-06-14 13:02:00,
2013-06-14 09:11:00,64.0,60.0,30.01,WSW,254,2.0,3.0,87,0.00,,,0.15,,2013-06-14 13:11:00,
2013-06-14 09:22:00,65.0,60.0,30.02,NNW,341,1.0,2.0,83,0.00,,,0.12,,2013-06-14 13:22:00,
2013-06-14 09:33:00,65.0,60.0,30.02,NNW,341,1.0,2.0,83,0.00,,,0.12,,2013-06-14 13:33:00,
2013-06-14 09:43:00,67.0,60.0,30.01,NNE,21,1.0,2.0,78,0.00,,,0.06,,2013-06-14 13:43:00,
2013-06-14 09:53:00,68.0,59.0,30.02,West,270,1.0,5.0,73,0.00,,,0.05,,2013-06-14 13:53:00,
2013-06-14 10:02:00,68.0,58.0,30.01,WNW,298,1.0,3.0,71,0.00,,,0.05,,2013-06-14 14:02:00,
2013-06-14 10:11:00,69.0,60.0,30.02,WNW,288,1.0,3.0,73,0.00,,,0.02,,2013-06-14 14:11:00,
2013-06-14 10:22:00,69.0,60.0,30.02,North,351,1.0,2.0,72,0.00,,,0.01,,2013-06-14 14:22:00,
2013-06-14 10:34:00,69.0,60.0,30.02,ENE,68,0.0,0.0,72,0.00,,,0.01,,2013-06-14 14:34:00,
2013-06-14 10:43:00,69.0,59.0,30.03,NNW,344,2.0,5.0,71,0.00,,,0.00,,2013-06-14 14:43:00,
2013-06-14 10:52:00,70.0,59.0,30.03,East,83,2.0,2.0,68,0.00,,,0.00,,2013-06-14 14:52:00,
2013-06-14 11:02:00,70.0,60.0,30.03,NW,316,0.0,2.0,70,0.00,,,0.00,,2013-06-14 15:02:00,
2013-06-14 11:11:00,71.0,59.0,30.03,NNE,26,1.0,3.0,67,0.00,,,0.00,,2013-06-14 15:11:00,
2013-06-14 11:23:00,72.0,59.0,30.04,North,5,2.0,3.0,64,0.00,,,0.00,,2013-06-14 15:23:00,
2013-06-14 11:33:00,71.0,59.0,30.04,NNE,19,1.0,2.0,65,0.00,,,0.00,,2013-06-14 15:33:00,
2013-06-14 11:44:00,72.0,59.0,30.04,North,6,2.0,5.0,64,0.00,,,0.00,,2013-06-14 15:44:00,
2013-06-14 11:53:00,72.0,58.0,30.04,North,358,1.0,3.0,62,0.00,,,0.00,,2013-06-14 15:53:00,
2013-06-14 12:01:00,73.0,58.0,30.04,North,355,1.0,5.0,60,0.00,,,0.00,,2013-06-14 16:01:00,
2013-06-14 12:11:00,72.0,59.0,30.04,WSW,248,0.0,0.0,63,0.00,,,0.00,,2013-06-14 16:11:00,
2013-06-14 12:22:00,72.0,59.0,30.05,WNW,285,1.0,3.0,64,0.00,,,0.00,,2013-06-14 16:22:00,
2013-06-14 12:33:00,72.0,59.0,30.05,WNW,293,1.0,2.0,63,0.00,,,0.00,,2013-06-14 16:33:00,
2013-06-14 12:43:00,71.0,58.0,30.05,West,276,0.0,2.0,64,0.00,,,0.00,,2013-06-14 16:43:00,
2013-06-14 12:52:00,71.0,59.0,30.05,North,10,1.0,2.0,66,0.00,,,0.00,,2013-06-14 16:52:00,
2013-06-14 13:02:00,72.0,60.0,30.05,WNW,287,2.0,3.0,65,0.00,,,0.00,,2013-06-14 17:02:00,
2013-06-14 13:11:00,72.0,58.0,30.05,NW,312,2.0,2.0,62,0.00,,,0.00,,2013-06-14 17:11:00,
2013-06-14 13:22:00,73.0,59.0,30.05,NNW,339,2.0,3.0,61,0.00,,,0.00,,2013-06-14 17:22:00,
2013-06-14 13:34:00,73.0,61.0,30.04,West,259,2.0,5.0,65,0.00,,,0.00,,2013-06-14 17:34:00,
2013-06-14 13:43:00,73.0,58.0,30.04,West,273,2.0,5.0,59,0.00,,,0.00,,2013-06-14 17:43:00,
2013-06-14 13:53:00,74.0,59.0,30.04,WNW,301,2.0,6.0,60,0.00,,,0.00,,2013-06-14 17:53:00,
2013-06-14 14:02:00,74.0,57.0,30.03,NW,325,2.0,5.0,56,0.00,,,0.00,,2013-06-14 18:02:00,
2013-06-14 14:11:00,74.0,57.0,30.03,NW,315,1.0,2.0,56,0.00,,,0.00,,2013-06-14 18:11:00,
2013-06-14 14:22:00,74.0,57.0,30.03,North,354,1.0,3.0,55,0.00,,,0.00,,2013-06-14 18:22:00,
2013-06-14 14:32:00,75.0,55.0,30.03,WNW,294,2.0,5.0,50,0.00,,,0.00,,2013-06-14 18:32:00,
2013-06-14 14:43:00,76.0,57.0,30.02,NNW,348,1.0,5.0,52,0.00,,,0.00,,2013-06-14 18:43:00,
2013-06-14 14:52:00,75.0,57.0,30.02,West,276,1.0,3.0,54,0.00,,,0.00,,2013-06-14 18:52:00,
2013-06-14 15:01:00,75.0,57.0,30.02,North,7,2.0,3.0,53,0.00,,,0.00,,2013-06-14 19:01:00,
2013-06-14 15:11:00,76.0,56.0,30.02,NW,304,3.0,3.0,50,0.00,,,0.00,,2013-06-14 19:11:00,
2013-06-14 15:22:00,76.0,55.0,30.02,WNW,296,2.0,5.0,48,0.00,,,0.00,,2013-06-14 19:22:00,
2013-06-14 15:32:00,77.0,57.0,30.01,WSW,254,2.0,2.0,50,0.00,,,0.00,,2013-06-14 19:32:00,
2013-06-14 15:43:00,77.0,56.0,30.01,North,357,2.0,6.0,49,0.00,,,0.00,,2013-06-14 19:43:00,
2013-06-14 15:53:00,76.0,55.0,30.01,NNW,333,3.0,5.0,49,0.00,,,0.00,,2013-06-14 19:53:00,
2013-06-14 16:02:00,76.0,56.0,30.01,WNW,291,2.0,3.0,50,0.00,,,0.00,,2013-06-14 20:02:00,
2013-06-14 16:11:00,76.0,55.0,30.01,North,1,2.0,5.0,49,0.00,,,0.00,,2013-06-14 20:11:00,
2013-06-14 16:22:00,76.0,56.0,30.01,WSW,250,0.0,0.0,50,0.00,,,0.00,,2013-06-14 20:22:00,
2013-06-14 16:33:00,76.0,56.0,30.02,West,259,0.0,1.0,50,0.00,,,0.00,,2013-06-14 20:33:00,
2013-06-14 16:43:00,78.0,56.0,30.02,WSW,255,1.0,2.0,47,0.00,,,0.00,,2013-06-14 20:43:00,
2013-06-14 16:53:00,78.0,56.0,30.03,NW,307,2.0,3.0,46,0.00,,,0.00,,2013-06-14 20:53:00,
2013-06-14 17:02:00,77.0,55.0,30.03,NNE,29,2.0,3.0,46,0.00,,,0.00,,2013-06-14 21:02:00,
2013-06-14 17:11:00,78.0,56.0,30.02,West,279,0.0,3.0,46,0.00,,,0.00,,2013-06-14 21:11:00,
2013-06-14 17:22:00,78.0,56.0,30.02,West,264,1.0,2.0,46,0.00,,,0.00,,2013-06-14 21:22:00,
2013-06-14 17:34:00,77.0,55.0,30.02,West,261,0.0,3.0,46,0.00,,,0.00,,2013-06-14 21:34:00,
2013-06-14 17:42:00,77.0,55.0,30.02,NE,51,0.0,0.0,46,0.00,,,0.00,,2013-06-14 21:42:00,
2013-06-14 17:52:00,77.0,55.0,30.02,NW,319,2.0,3.0,46,0.00,,,0.00,,2013-06-14 21:52:00,
2013-06-14 18:02:00,76.0,54.0,30.02,NW,308,2.0,3.0,47,0.00,,,0.00,,2013-06-14 22:02:00,
2013-06-14 18:12:00,76.0,55.0,30.02,North,354,1.0,1.0,48,0.00,,,0.00,,2013-06-14 22:12:00,
2013-06-14 18:22:00,76.0,55.0,30.02,WNW,291,0.0,0.0,48,0.00,,,0.00,,2013-06-14 22:22:00,
2013-06-14 18:33:00,76.0,54.0,30.02,West,260,1.0,1.0,47,0.00,,,0.00,,2013-06-14 22:33:00,
2013-06-14 18:43:00,77.0,54.0,30.02,North,349,2.0,7.0,45,0.00,,,0.00,,2013-06-14 22:43:00,
2013-06-14 18:53:00,77.0,55.0,30.01,SW,236,0.0,0.0,46,0.00,,,0.00,,2013-06-14 22:53:00,
2013-06-14 19:02:00,76.0,54.0,30.01,WSW,242,0.0,2.0,47,0.00,,,0.00,,2013-06-14 23:02:00,
2013-06-14 19:11:00,76.0,54.0,30.01,North,351,2.0,3.0,46,0.00,,,0.00,,2013-06-14 23:11:00,
2013-06-14 19:22:00,76.0,54.0,30.01,ENE,64,0.0,1.0,47,0.00,,,0.00,,2013-06-14 23:22:00,
2013-06-14 19:33:00,76.0,54.0,30.01,SSW,209,0.0,2.0,46,0.00,,,0.00,,2013-06-14 23:33:00,
2013-06-14 19:43:00,76.0,53.0,30.01,WNW,289,1.0,2.0,45,0.00,,,0.00,,2013-06-14 23:43:00,
2013-06-14 19:52:00,75.0,53.0,30.01,WNW,287,0.0,1.0,47,0.00,,,0.00,,2013-06-14 23:52:00,
2013-06-14 20:01:00,75.0,54.0,30.01,WNW,291,0.0,0.0,48,0.00,,,0.00,,2013-06-15 00:01:00,
2013-06-14 20:11:00,74.0,54.0,30.01,WNW,289,0.0,0.0,49,0.00,,,0.00,,2013-06-15 00:11:00,
2013-06-14 20:23:00,74.0,54.0,30.01,WNW,289,0.0,0.0,49,0.00,,,0.00,,2013-06-15 00:23:00,
2013-06-14 20:34:00,73.0,54.0,30.02,West,270,1.0,2.0,51,0.00,,,0.00,,2013-06-15 00:34:00,
2013-06-14 20:43:00,73.0,54.0,30.02,West,270,1.0,2.0,51,0.00,,,0.00,,2013-06-15 00:43:00,
2013-06-14 20:53:00,73.0,54.0,30.02,WSW,244,0.0,0.0,52,0.00,,,0.00,,2013-06-15 00:53:00,
2013-06-14 21:01:00,72.0,55.0,30.02,WSW,244,0.0,0.0,55,0.00,,,0.00,,2013-06-15 01:01:00,
2013-06-14 21:11:00,72.0,55.0,30.02,WSW,244,0.0,0.0,55,0.00,,,0.00,,2013-06-15 01:11:00,
2013-06-14 21:22:00,71.0,54.0,30.02,WSW,244,0.0,0.0,56,0.00,,,0.00,,2013-06-15 01:22:00,
2013-06-14 21:33:00,71.0,55.0,30.02,WSW,244,0.0,0.0,57,0.00,,,0.00,,2013-06-15 01:33:00,
2013-06-14 21:43:00,70.0,55.0,30.02,WSW,244,0.0,0.0,59,0.00,,,0.00,,2013-06-15 01:43:00,
2013-06-14 21:54:00,70.0,55.0,30.02,WSW,244,0.0,0.0,60,0.00,,,0.00,,2013-06-15 01:54:00,
2013-06-14 22:02:00,69.0,55.0,30.03,WSW,244,0.0,0.0,62,0.00,,,0.00,,2013-06-15 02:02:00,
2013-06-14 22:11:00,69.0,55.0,30.03,WSW,244,0.0,0.0,62,0.00,,,0.00,,2013-06-15 02:11:00,
2013-06-14 22:23:00,68.0,55.0,30.03,WSW,244,0.0,0.0,64,0.00,,,0.00,,2013-06-15 02:23:00,
2013-06-14 22:33:00,68.0,55.0,30.03,WSW,244,0.0,0.0,63,0.00,,,0.00,,2013-06-15 02:33:00,
2013-06-14 22:43:00,68.0,56.0,30.04,WSW,244,0.0,0.0,65,0.00,,,0.00,,2013-06-15 02:43:00,
2013-06-14 22:53:00,68.0,56.0,30.04,WSW,244,0.0,0.0,66,0.00,,,0.00,,2013-06-15 02:53:00,
2013-06-14 23:01:00,67.0,56.0,30.04,WSW,244,0.0,0.0,67,0.00,,,0.00,,2013-06-15 03:01:00,
2013-06-14 23:11:00,67.0,56.0,30.04,WSW,244,0.0,0.0,67,0.00,,,0.00,,2013-06-15 03:11:00,
2013-06-14 23:24:00,67.0,56.0,30.04,WSW,244,0.0,0.0,67,0.00,,,0.00,,2013-06-15 03:24:00,
2013-06-14 23:32:00,67.0,56.0,30.04,WSW,244,0.0,0.0,69,0.00,,,0.00,,2013-06-15 03:32:00,
2013-06-14 23:44:00,65.0,55.0,30.05,WSW,244,0.0,0.0,71,0.00,,,0.00,,2013-06-15 03:44:00,
2013-06-14 23:52:00,65.0,56.0,30.05,WSW,244,0.0,0.0,73,0.00,,,0.00,,2013-06-15 03:52:00,